When you browse on this site, cookies collect data to enhance your experience and personalize the content and advertising you see.
Visit our Privacy Policy to learn more. By continuing to use the site, you agree to this use of cookies and data.
  • In Austria
  • List of Countries
  • For 7 days
  • Water Temperature
  • Weather Map
  • News
  • Weather Widgets
  • user-avatar
    Login

    Hourly Weather Mixquiahuala

    Today, 27 January, Monday

    Time Temperature Precipitation Wind Pressure Humidity
    00:00 +14°C° 0.1 mm 1 mps 601 mmHg 77%
    01:00 +13°C° 0.1 mm 1 mps 600 mmHg 79%
    02:00 +12°C° 0.1 mm 0 mps 600 mmHg 82%
    03:00 +11°C° 0 mm 0 mps 600 mmHg 82%
    04:00 +11°C° 0 mm 0 mps 600 mmHg 83%
    05:00 +10°C° 0 mm 0 mps 600 mmHg 84%
    06:00 +12°C° 0 mm 0 mps 601 mmHg 77%
    07:00 +13°C° 0 mm 0 mps 601 mmHg 70%
    08:00 +14°C° 0 mm 0 mps 602 mmHg 64%
    09:00 +18°C° 0 mm 1 mps 603 mmHg 55%
    10:00 +19°C° 0 mm 1 mps 603 mmHg 46%
    11:00 +20°C° 0 mm 2 mps 603 mmHg 37%
    12:00 +21°C° 0 mm 3 mps 603 mmHg 32%
    13:00 +22°C° 0 mm 4 mps 602 mmHg 26%
    14:00 +23°C° 0 mm 5 mps 602 mmHg 21%
    15:00 +23°C° 0 mm 4 mps 602 mmHg 24%
    16:00 +22°C° 0 mm 3 mps 601 mmHg 27%
    17:00 +21°C° 0 mm 3 mps 601 mmHg 30%
    18:00 +19°C° 0 mm 2 mps 601 mmHg 39%
    19:00 +18°C° 0 mm 1 mps 601 mmHg 48%
    20:00 +15°C° 0 mm 1 mps 600 mmHg 58%
    21:00 +15°C° 0 mm 1 mps 600 mmHg 58%
    22:00 +14°C° 0 mm 1 mps 600 mmHg 59%
    23:00 +14°C° 0 mm 1 mps 600 mmHg 60%

    Tomorrow, 28 January, Tuesday

    Time Temperature Precipitation Wind Pressure Humidity
    00:00 +13°C° 0 mm 1 mps 599 mmHg 58%
    01:00 +13°C° 0 mm 1 mps 599 mmHg 56%
    02:00 +12°C° 0 mm 1 mps 598 mmHg 54%
    03:00 +12°C° 0 mm 1 mps 598 mmHg 53%
    04:00 +11°C° 0 mm 1 mps 598 mmHg 52%
    05:00 +11°C° 0 mm 1 mps 598 mmHg 50%
    06:00 +12°C° 0 mm 1 mps 599 mmHg 45%
    07:00 +13°C° 0 mm 1 mps 599 mmHg 40%
    08:00 +15°C° 0 mm 1 mps 600 mmHg 35%
    09:00 +18°C° 0 mm 1 mps 601 mmHg 30%
    10:00 +20°C° 0 mm 1 mps 601 mmHg 24%
    11:00 +21°C° 0 mm 1 mps 602 mmHg 19%
    12:00 +21°C° 0 mm 2 mps 601 mmHg 17%
    13:00 +23°C° 0 mm 2 mps 601 mmHg 16%
    14:00 +24°C° 0 mm 3 mps 601 mmHg 15%
    15:00 +22°C° 0 mm 3 mps 601 mmHg 19%
    16:00 +21°C° 0 mm 4 mps 600 mmHg 23%
    17:00 +20°C° 0 mm 4 mps 600 mmHg 27%
    18:00 +18°C° 0 mm 3 mps 600 mmHg 38%
    19:00 +17°C° 0 mm 2 mps 600 mmHg 49%
    20:00 +15°C° 0 mm 2 mps 600 mmHg 60%
    21:00 +14°C° 0 mm 2 mps 600 mmHg 69%
    22:00 +13°C° 0 mm 1 mps 600 mmHg 77%
    23:00 +13°C° 0 mm 1 mps 600 mmHg 85%

    Day after tomorrow, 29 January, Wednesday

    Time Temperature Precipitation Wind Pressure Humidity
    00:00 +12°C° 0 mm 1 mps 600 mmHg 86%
    01:00 +12°C° 0 mm 2 mps 600 mmHg 88%
    02:00 +12°C° 0 mm 2 mps 599 mmHg 89%
    03:00 +12°C° 0 mm 2 mps 600 mmHg 87%
    04:00 +12°C° 0 mm 1 mps 600 mmHg 85%
    05:00 +12°C° 0 mm 1 mps 600 mmHg 83%
    06:00 +12°C° 0 mm 1 mps 601 mmHg 80%
    07:00 +13°C° 0 mm 2 mps 601 mmHg 76%
    08:00 +13°C° 0 mm 2 mps 602 mmHg 73%
    09:00 +14°C° 0 mm 2 mps 602 mmHg 64%
    10:00 +16°C° 0 mm 2 mps 602 mmHg 56%
    11:00 +17°C° 0 mm 2 mps 602 mmHg 48%
    12:00 +19°C° 0 mm 2 mps 602 mmHg 43%
    13:00 +20°C° 0 mm 2 mps 601 mmHg 38%
    14:00 +21°C° 0 mm 2 mps 601 mmHg 34%
    15:00 +20°C° 0 mm 3 mps 600 mmHg 39%
    16:00 +18°C° 0 mm 3 mps 600 mmHg 44%
    17:00 +17°C° 0 mm 3 mps 600 mmHg 50%
    18:00 +16°C° 0 mm 2 mps 600 mmHg 57%
    19:00 +14°C° 0 mm 2 mps 600 mmHg 64%
    20:00 +13°C° 0 mm 1 mps 599 mmHg 71%
    21:00 +12°C° 0 mm 1 mps 599 mmHg 72%
    22:00 +12°C° 0 mm 1 mps 599 mmHg 74%
    23:00 +11°C° 0 mm 1 mps 599 mmHg 75%

    30 January, Thursday

    Time Temperature Precipitation Wind Pressure Humidity
    00:00 +11°C° 0 mm 1 mps 599 mmHg 73%
    01:00 +11°C° 0 mm 1 mps 598 mmHg 70%
    02:00 +11°C° 0 mm 1 mps 598 mmHg 68%
    03:00 +11°C° 0 mm 1 mps 598 mmHg 68%
    04:00 +11°C° 0 mm 1 mps 598 mmHg 67%
    05:00 +10°C° 0 mm 1 mps 598 mmHg 67%
    06:00 +12°C° 0 mm 2 mps 599 mmHg 61%
    07:00 +13°C° 0 mm 2 mps 600 mmHg 55%
    08:00 +15°C° 0 mm 2 mps 601 mmHg 49%
    09:00 +17°C° 0 mm 4 mps 601 mmHg 38%
    10:00 +20°C° 0 mm 5 mps 602 mmHg 27%
    11:00 +22°C° 0 mm 7 mps 602 mmHg 16%
    12:00 +23°C° 0 mm 7 mps 602 mmHg 16%
    13:00 +23°C° 0 mm 8 mps 601 mmHg 15%
    14:00 +23°C° 0 mm 8 mps 601 mmHg 15%
    15:00 +22°C° 0 mm 7 mps 600 mmHg 18%
    16:00 +21°C° 0 mm 7 mps 600 mmHg 22%
    17:00 +20°C° 0 mm 6 mps 600 mmHg 25%
    18:00 +19°C° 0 mm 6 mps 600 mmHg 29%
    19:00 +16°C° 0 mm 6 mps 600 mmHg 33%
    20:00 +15°C° 0 mm 6 mps 600 mmHg 36%
    21:00 +14°C° 0 mm 5 mps 600 mmHg 41%
    22:00 +14°C° 0 mm 3 mps 600 mmHg 45%
    23:00 +14°C° 0 mm 2 mps 600 mmHg 49%

    31 January, Friday

    Time Temperature Precipitation Wind Pressure Humidity
    00:00 +14°C° 0 mm 2 mps 599 mmHg 50%
    01:00 +14°C° 0 mm 2 mps 599 mmHg 51%
    02:00 +14°C° 0 mm 2 mps 599 mmHg 52%
    03:00 +14°C° 0 mm 2 mps 599 mmHg 52%
    04:00 +13°C° 0 mm 1 mps 599 mmHg 53%
    05:00 +13°C° 0 mm 1 mps 600 mmHg 53%
    06:00 +14°C° 0 mm 1 mps 600 mmHg 50%
    07:00 +15°C° 0 mm 1 mps 601 mmHg 46%
    08:00 +15°C° 0 mm 0 mps 602 mmHg 43%
    09:00 +19°C° 0 mm 1 mps 603 mmHg 39%
    10:00 +20°C° 0 mm 1 mps 603 mmHg 35%
    11:00 +22°C° 0 mm 1 mps 603 mmHg 30%
    12:00 +21°C° 0 mm 2 mps 603 mmHg 32%
    13:00 +21°C° 0 mm 3 mps 602 mmHg 35%
    14:00 +21°C° 0 mm 4 mps 602 mmHg 37%
    15:00 +19°C° 0.1 mm 4 mps 601 mmHg 48%
    16:00 +17°C° 0.1 mm 3 mps 601 mmHg 59%
    17:00 +14°C° 0.1 mm 3 mps 600 mmHg 70%
    18:00 +13°C° 0 mm 3 mps 601 mmHg 73%
    19:00 +12°C° 0 mm 3 mps 601 mmHg 77%
    20:00 +13°C° 0 mm 2 mps 602 mmHg 81%
    21:00 +12°C° 0 mm 2 mps 602 mmHg 82%
    22:00 +12°C° 0 mm 2 mps 602 mmHg 83%
    23:00 +12°C° 0 mm 2 mps 602 mmHg 84%

    1 February, Saturday

    Time Temperature Precipitation Wind Pressure Humidity
    00:00 +12°C° 0 mm 2 mps 602 mmHg 85%
    01:00 +12°C° 0 mm 2 mps 601 mmHg 85%
    02:00 +10°C° 0 mm 2 mps 601 mmHg 86%
    03:00 +10°C° 0 mm 2 mps 601 mmHg 86%
    04:00 +10°C° 0 mm 2 mps 601 mmHg 86%
    05:00 +9°C° 0 mm 2 mps 601 mmHg 86%
    06:00 +9°C° 0 mm 2 mps 601 mmHg 84%
    07:00 +9°C° 0 mm 2 mps 602 mmHg 82%
    08:00 +9°C° 0 mm 2 mps 602 mmHg 81%
    09:00 +10°C° 0 mm 2 mps 603 mmHg 75%
    10:00 +12°C° 0 mm 2 mps 603 mmHg 69%
    11:00 +12°C° 0 mm 3 mps 603 mmHg 63%
    12:00 +13°C° 0 mm 3 mps 603 mmHg 61%
    13:00 +14°C° 0 mm 3 mps 603 mmHg 59%
    14:00 +14°C° 0 mm 4 mps 603 mmHg 57%
    15:00 +13°C° 0 mm 4 mps 602 mmHg 62%
    16:00 +12°C° 0 mm 4 mps 602 mmHg 67%
    17:00 +11°C° 0 mm 4 mps 602 mmHg 73%
    18:00 +11°C° 0 mm 3 mps 602 mmHg 75%
    19:00 +10°C° 0 mm 3 mps 603 mmHg 77%
    20:00 +10°C° 0 mm 2 mps 603 mmHg 80%
    21:00 +10°C° 0 mm 2 mps 603 mmHg 80%
    22:00 +10°C° 0 mm 1 mps 604 mmHg 80%
    23:00 +10°C° 0 mm 1 mps 604 mmHg 81%
    Show more